User: anonymous   Login
Location: Unspecified
(0.0000°N, 0.0000°E)
Time: 11:14:13
(UTC+00:00)
Language:

N. Korean satellite - Orbit

View from above orbital plane
View from above orbital plane
View from above satellite
View from above satellite

Ground track
Ground track

The orbit data is extracted from the following two-line orbital elements,

1 39026U 12072A   15062.91161103  .00009878  00000-0  46947-3 0  9993
2 39026 097.2962 098.0883 0046689 242.9202 116.7265 15.18424851122728
Epoch (UTC): 03 March 2015 21:52:43
Eccentricity: 0.0046689
inclination: 97.2962°
perigee height: 478 km
apogee height: 543 km
right ascension of ascending node: 98.0883°
argument of perigee: 242.9202°
revolutions per day: 15.18424851
mean anomaly at epoch: 116.7265°
orbit number at epoch: 12272

The dashed part of the orbit path shows where the satellite is in the earth's shadow,  

DLR